Погода в Новой Романовке

Россия / Брянская область     53°00′19″N   32°56′32″E
темп.,
°C
ветер,
м/с
пор.,
м/с
влажн.,
%
обл.,
%
осадки,
мм/ч
давл.,
гПа
погр.,
м
12 апреля, пн
пн1200:00+7вюв33691 0.0 102932
03:00+6в3473100 0.0 103059
06:00+5всв3876100 0.0 1029118
09:00+8всв61259100 0.0 1027465
12:00+10в6866100 0.1 1025698
15:00+11в4574100 0.2 1024506
18:00+13всв3774100 0.0 1022563
21:00+10всв3490100 0.0 102262
13 апреля, вт
вт1300:00+10вюв2290100 0.0 102122
03:00+9ююв3390100 0.0 102142
06:00+9юв3690100 0.0 102192
09:00+13ююв5107482 0.0 1021404
12:00+16ююв6106154 0.0 10201351
15:00+13ю4108087 0.3 1021624
18:00+14ююз367296 0.0 1019642
21:00+11ю2285100 0.1 101949
14 апреля, ср
ср1400:00+11ююв238893 0.1 101860
03:00+10ю3689100 0.1 1018158
06:00+9ююв2490100 0.0 1017116
09:00+11ююв3583100 0.0 1017298
12:00+12ююв347798 0.0 1017469
15:00+15ю456091 0.2 10151388
18:00+13ю4470100 0.3 1015670
21:00+9ю3388100 0.3 101656
15 апреля, чт
чт1500:00+8ю2291100 0.0 101629
03:00+7ююз229297 0.0 101613
06:00+8вюв2289100 0.0 101631
09:00+11вюв237799 0.0 1016309
12:00+15вюв22575 0.0 10151160
15:00+17в334775 0.1 10141786
18:00+15ю235991 0.3 1013302
21:00+10в49844 0.3 1014235
16 апреля, пт
пт1600:00+8в36945 0.0 1014134
03:00+7в36966 0.0 1014132
06:00+7в379627 0.0 1014159
09:00+11вюв468266 0.1 1014510
12:00+14юв356677 0.3 1014907
15:00+12ю4578100 2.1 1016419
18:00+13ююв3467100 0.4 1016770
21:00+11св238379 0.9 101767